www.pogodaiklimat.ru

Погода и климат >> Архив погоды >> Россия >> Приморский край >> Сосуново


ПОГОДА в Сосуново

  • Прогноз погоды в Сосуново
  • Монитор погоды в Сосуново
  • Климат города

АРХИВ ПОГОДЫ в Сосуново

Время (UTC), дата Ветер
(напр.,м/с)
 
Видим.   Явления Облачность Т
(С)
Тd
(С)
f
(%)
Тe
(С)
Тes
(С)
Комфортность P
(гПа)
Po
(гПа)
Тmin
(С)
Tmax
(С)
R
(мм)
R24
(мм)
S
(см)
18 19.06 С 4 20 км {ливн. осадки} 10/0
[As op]
+9.8 +8.3 90 +7 +7 1010.3 1009.9
21 19.06 С 5 20 км 10/10 600 м
[Sc]
+9.9 +8.4 90 +7 +7 1011.2 1010.8 +9.1 3
00 20.06 С 7 10 км 10/10 300 м
[St]
+10.7 +9.1 90 +7 +7 1011.6 1011.2
03 20.06 С 6 2000 м морось 10/10 200 м
[St]
+10.0 +8.8 92 +6 +6 1011.7 1011.3
06 20.06 С 4 4000 м слабая морось 10/10 300 м
[St]
+10.9 +9.0 88 +8 +8 1011.6 1011.2
09 20.06 СЗ 2 10 км слабый дождь {морось} 10/3 300 м
[Frnb As op]
+9.9 +8.4 90 +8 +8 1012.9 1012.5 +11.7 1
12 20.06 С 4
{11}
10 км {дождь, морось} 10/10 300 м
[St]
+10.1 +8.5 90 +7 +7 1013.1 1012.7
15 20.06 С 3 50 км 10/10 300 м
[St]
+9.8 +8.5 92 +7 +7 1012.3 1011.9
18 20.06 С 2 200 м туман ?/? +9.5 +8.5 93 +8 +8 1011.9 1011.5
21 20.06 С 3 4000 м слабая морось {туман} 10/10 300 м
[St]
+9.2 +8.2 93 +7 +7 1011.8 1011.4 +9.1 2
00 21.06 СВ 4 20 км {морось, туман} 10/10 300 м
[St]
+11.4 +9.6 89 +9 +9 1010.9 1010.5
03 21.06 СВ 4 50 км {морось} 10/10 600 м
[Sc]
+11.7 +9.1 84 +10 +10 1009.8 1009.4
06 21.06 СВ 4 50 км 10/0
[As trans]
+11.8 +9.3 85 +10 +13 1008.1 1007.7
09 21.06 СВ 4 50 км 10/10 600 м
[Sc]
+11.0 +8.9 87 +9 +9 1007.0 1006.6 +12.2
12 21.06 СВ 2 20 км 10/10 600 м
[Sc]
+10.1 +8.8 92 +8 +8 1007.9 1007.5
15 21.06 ЮЗ 1 20 км 10/10 300 м
[Sc]
+10.0 +8.8 92 +9 +9 1005.5 1005.1
18 21.06 штиль 0 20 км 10/10 300 м
[Sc]
+8.9 +7.8 93 +8 +8 1004.9 1004.5
21 21.06 С 2 20 км 10/10 300 м
[St]
+10.9 +9.7 92 +9 +9 1004.6 1004.2 +8.3
00 22.06 Ю 2 20 км 8/0
[Cs]
+14.2 +11.0 81 +14 +25 опасность
простуды
1004.6 1004.2
03 22.06 В 1 20 км 6/4 600 м
[Cu hum Ci fib]
+16.4 +11.1 71 +17 +30 опасность
простуды
1003.0 1002.6
06 22.06 Ю 3 20 км 6/1 1000 м
[Cu hum Ci fib]
+13.1 +9.5 79 +12 +19 1004.0 1003.7
09 22.06 Ю 2 20 км 1/0
[Ac trans]
+12.8 +9.7 81 +12 +13 1003.6 1003.2 +19.0
12 22.06 З 2 20 км 3/3 1000 м
[Sc]
+9.8 +8.5 92 +8 +8 1005.2 1004.8
15 22.06 ЮЗ 2 20 км ясно +9.5 +8.5 93 +8 +8 1005.2 1004.8
18 22.06 З 2 20 км ясно +8.3 +7.3 93 +6 +6 1004.8 1004.4
21 22.06 СВ 3 20 км 10/0
[Cs]
+11.0 +9.8 92 +9 +11 1005.1 1004.7 +8.3
00 23.06 В 2 20 км 5/0
[Cs]
+13.4 +10.6 83 +13 +24 опасность
простуды
1005.0 1004.6
03 23.06 В 1 10 км слабый ливневой дождь 10/10 600 м
[Cb cap]
+14.9 +11.6 81 +15 +15 1004.1 1003.8
06 23.06 З 1 20 км {ливн. осадки} 10/10 600 м
[Sc]
+15.3 +12.0 81 +16 +16 1002.3 1001.9
09 23.06 СВ 5
{14}
20 км {ливн. осадки} 5/5 600 м
[Sc]
+12.2 +9.9 86 +10 +10 1002.6 1002.2 +20.8 0.3
12 23.06 СВ 8-10
{10}
20 км {ливн. осадки} 10/10 600 м
[Sc]
+11.8 +10.2 90 +8 +8 1002.9 1002.5
15 23.06 Ю 1
{11}
4000 м дождь 10/10 300 м
[Frnb Ns]
+12.1 +10.6 91 +12 +12 1003.1 1002.7
18 23.06 С 5
{10}
20 км {дождь} 10/10 600 м
[Sc]
+12.0 +10.6 91 +9 +9 1002.9 1002.5
21 23.06 С 9-13
{13}
2000 м дождь 10/3 300 м
[Frnb As op]
+10.7 +9.2 90 +7 +7 1005.3 1005.0 +10.6 2
00 24.06 С 6-12
{14}
10 км {морось} 10/10 600 м
[Sc]
+11.2 +7.8 80 +8 +8 1006.3 1005.9 +10.6
03 24.06 С 8-12
{12}
20 км 10/10 1000 м
[Sc]
+12.0 +6.8 70 +9 +9 1006.8 1006.4
06 24.06 С 7-11
{13}
20 км {ливн. осадки} 10/10 600 м
[Sc]
+11.1 +6.5 73 +8 +8 1006.6 1006.2
09 24.06 С 4
{13}
20 км {ливн. осадки} 10/10 1000 м
[Sc]
+10.3 +6.3 76 +8 +8 1007.3 1006.9 +12.5 2
12 24.06 С 8-13
{13}
20 км {ливн. осадки} 10/10 600 м
[Sc]
+10.1 +5.4 73 +6 +6 1007.9 1007.6
15 24.06 С 4
{13}
20 км 10/10 600 м
[Sc]
+9.2 +5.8 79 +6 +6 1008.1 1007.7
18 24.06 С 5
{13}
20 км 10/10 300 м
[St]
+9.4 +6.6 83 +6 +6 1007.8 1007.4
21 24.06 С 7-11
{12}
4000 м дождь {ливн. осадки} 10/4 300 м
[Frnb As op]
+9.1 +7.6 90 +5 +5 1008.5 1008.1 +8.8 4
00 25.06 С 10-14
{15}
10 км {ливн. осадки, дождь} 10/10 300 м
[St]
+10.3 +7.4 82 +6 +6 1009.0 1008.6
03 25.06 С 9-13
{16}
20 км 10/10 300 м
[Sc]
+10.3 +7.6 83 +6 +6 1009.3 1008.9
06 25.06 С 8-10
{14}
50 км 9/9 600 м
[Sc]
+11.0 +6.2 72 +7 +8 1008.9 1008.5
09 25.06 С 4
{11}
50 км 10/10 1000 м
[Sc]
+10.5 +5.3 70 +8 +8 1009.0 1008.6 +11.9 0.3
12 25.06 СЗ 2 50 км 8/8 600 м
[Sc]
+9.6 +5.0 73 +8 +8 1009.1 1008.7
15 25.06 СЗ 2 50 км 5/0
[As op]
+10.1 +5.2 72 +9 +9 1008.6 1008.2
18 25.06 СЗ 1 50 км 10/0
[As op]
+9.4 +5.6 77 +9 +9 1008.2 1007.8
21 25.06 ЮЗ 2 50 км 9/9 600 м
[Sc]
+11.0 +6.9 76 +10 +10 1008.7 1008.3 +8.5
00 26.06 В 2 20 км 6/6 600 м
[Cu hum]
+13.5 +8.0 69 +13 +18 1008.5 1008.2
03 26.06 Ю 4 20 км 3/3 600 м
[Cu hum]
+13.8 +7.1 64 +12 +21 1007.7 1007.4
06 26.06 Ю 7 20 км 10/10 600 м
[Sc]
+12.4 +7.2 71 +10 +10 1007.1 1006.7
09 26.06 Ю 2 20 км 10/10 600 м
[Sc]
+11.7 +7.4 75 +11 +11 1008.2 1007.8 +14.0
12 26.06 ЮЗ 2 20 км 10/10 600 м
[Sc]
+9.8 +7.2 84 +8 +8 1009.0 1008.7
15 26.06 СЗ 1 20 км 6/0
[Cs]
+9.1 +7.5 90 +8 +8 1009.2 1008.8

 

Местоположение метеостанции Сосуново (Приморский край, Россия): широта 46.55 долгота 138.30 высота над уровнем моря 4 м.

В архиве по умолчанию представлена погода в Сосуново за последнюю неделю. Архивные данные за месяц целиком и за предыдущие месяцы, начиная с января 2011 года, Вы можете получить, выбрав интересующий диапазон дат из раскрывающегося списка и нажав кнопку "Ввод!".

Внимание! Время в таблицах - всемирное. Для получения местного времени необходимо прибавить поправку, которая в Сосуново равна 10 ч.

Смотрите также архив погоды в соседних городах и на ближайших метеорологических станциях:

Погода в Охотничем (Приморский край, Россия) (107 км)
Погода в Агзу (Приморский край, Россия) (117 км)
Погода в Сукпае (Хабаровский край, Россия) (142 км)
Погода в Малой Кеме (Приморский край, Россия) (158 км)
Погода в Гвасюгах (Хабаровский край, Россия) (208 км)
Погода в Тернее (Приморский край, Россия) (217 км)
Погода на Остров Монерон (Сахалинская область, Россия) (225 км)
Погода в Красном Яре (Приморский край, Россия) (230 км)
Погода в Глубинном (Приморский край, Россия) (237 км)
Погода в Бичевой (Хабаровский край, Россия) (245 км)

Пояснения к столбцам:

Ветер - указаны скорость ветра в м/с - средняя за 10 мин, порывы в срок и между сроками (в фигурных скобках) и направление, откуда дует ветер: С - северный, СВ - северо-восточный, В - восточный, ЮВ - юго-восточный, Ю - южный, ЮЗ - юго-западный, З - западный, СЗ - северо-западный.
Видимость - горизонтальная дальность видимости в метрах или километрах. При видимости от 1 до 10 км при отсутствии осадков обычно наблюдается дымка, при ухудшении видимости до 1 км и менее - туман. В сухую погоду видимость может ухудшаться дымом, пылью или мглою.
Явления - указаны атмосферные явления, наблюдавшиеся в срок или в последний час перед сроком; фигурными скобками обозначены явления, наблюдавшиеся между сроками (за 1-3 часа до срока); квадратными скобками обозначены град или гололедные отложения с указанием их диаметра в мм.
Облачность - указаны через наклонную черту общая и нижняя облачность в баллах и высота нижней границы облаков в метрах; квадратными скобками обозначены формы облаков: Ci - перистые, Cs - перисто-слоистые, Cc - перисто-кучевые, Ac - высококучевые, As - высокослоистые, Sc - слоисто-кучевые, Ns - слоисто-дождевые, Cu - кучевые, Cb - кучево-дождевые. Подробнее классификацию облаков см. в Атласе облаков (PDF).
T - Температура воздуха - температура, измеренная на высоте 2 м над землей.
Td - Температура точки росы - температура, при понижении до которой содержащийся в воздухе водяной пар достигнет насыщения.
f - Относительная влажность воздуха - влажноcть воздуха, измеренная на высоте 2 м над землей.
Te - Эффективная температура - температура, которую ощущает одетый по сезону человек в тени. Характеристика душности погоды. При расчете учитывается влияние влажности воздуха и скорости ветра на теплоощущения человека.
Tes - Эффективная температура на солнце - температура, которую ощущает человек, с поправкой на солнечный нагрев. Характеристика знойности погоды. Зависит от высоты солнца над горизонтом, облачности и скорости ветра. Ночью, в пасмурную погоду, а также при ветре 12 м/с и более поправка равна нулю.
P - Атмосферное давление - приведенное к уровню моря атмосферное давление.
Po - Атмосферное давление - измеренное на уровне метеостанции атмосферное давление.
Tmin - Минимальная температура - минимум температуры воздуха на высоте 2 м над землей.
Tmax - Максимальная температура - максимум температуры воздуха на высоте 2 м над землей.
R - Количество осадков - Количество выпавших осадков за период времени, мм. При наведении курсора мыши на число - период времени, за который выпало указанное количество осадков.
R24 - Количество осадков - Количество выпавших осадков за 24 часа, мм.
S - Снежный покров - Высота снежного покрова, см. При наведении курсора мыши на число - состояние снежного покрова и степень покрытия местности в баллах.